Location: Clifton
(40.6201°N, 74.0771°W)
Time: 03:05:24
(UTC+00:00)

Daily predictions for brighter satellites

Satellite Brightness Start Highest point End
(mag) Time Altitude Azimuth Time Altitude Azimuth Time Altitude Azimuth
Cosmos 1634 Rocket 4.1 00:43:58 10° N 00:50:13 61° E 00:56:22 10° SSE
In-Cosmos 22 Rocket 4.1 00:46:00 10° S 00:51:17 80° E 00:56:38 10° NNE
USA 238 DEB 4.0 00:47:05 10° NW 00:54:27 84° WSW 01:02:05 10° SSE
USA 238 4.0 00:47:11 10° NW 00:54:33 85° WSW 01:02:12 10° SSE
IRIS 4.0 00:53:13 10° W 00:55:42 79° N 00:59:07 10° E
Cosmos 44 Rocket 4.1 00:51:09 10° S 00:55:42 32° ESE 01:00:19 10° NE
ISS -0.8 00:56:51 10° NNW 00:58:28 13° N 01:00:05 10° NNE
IRS-1A Rocket 4.3 00:57:12 10° SSE 01:02:42 69° ENE 01:08:11 10° N
Ariane Rocket 3.1 00:58:44 10° SSE 01:03:45 65° ENE 01:08:47 10° N
ERS-2 2.1 01:02:18 10° NNE 01:05:55 58° ESE 01:09:29 10° S
SEDSat Delta rocket 4.5 01:04:52 10° SSW 01:07:31 17° SSE 01:09:40 12° SE
Helios 1A Rocket 3.5 01:03:41 10° S 01:07:38 56° W 01:11:38 10° NNW
OAO 2 Rocket 3.8 01:05:27 10° WSW 01:10:14 44° S 01:14:32 12° ESE
Cosmos 1818 4.5 01:05:53 10° SW 01:11:12 55° NW 01:16:35 10° NNE
Cosmos 2221 3.3 01:12:07 10° N 01:16:04 35° ENE 01:19:20 14° SE
MOS 1 4.3 01:10:30 10° SSE 01:16:10 88° W 01:21:52 10° NNW
Cosmos 1242 Rocket 2.6 01:13:07 10° N 01:16:42 57° E 01:19:51 12° SSE
USA 307 3.1 01:13:49 10° NW 01:18:03 66° SW 01:21:34 14° SE
BREEZE-M DEB (TANK) 2.9 01:15:38 10° SSW 01:18:31 52° SE 01:26:35 10° ENE
Cosmos 1697 Rocket 3.0 01:17:43 10° NNW 01:23:17 52° ENE 01:27:44 16° SE
Meteor 2-13 Rocket 4.4 01:20:12 10° S 01:26:19 78° E 01:32:25 10° N
Terra 3.9 01:26:06 10° E 01:28:16 13° ENE 01:30:25 10° NE
Cosmos 2082 Rocket 2.5 01:23:16 10° S 01:28:33 45° ESE 01:33:53 10° NE
ERBS 4.2 01:28:22 10° NNW 01:30:48 19° NE 01:32:57 11° E
Hubble Space Telescope 2.7 01:29:28 10° SSW 01:31:33 14° S 01:31:56 13° SSE
IGS 5A 3.4 01:27:47 12° SSE 01:31:34 79° ENE 01:35:43 10° N
Cosmos 1833 Rocket 2.8 01:26:40 10° SSW 01:32:18 82° WNW 01:37:59 10° NNE
Cosmos 1953 Rocket 4.5 01:28:20 10° SSW 01:32:42 52° W 01:37:07 10° N
SPOT 3 Rocket 3.6 01:28:49 14° SSE 01:33:20 65° ENE 01:38:32 10° N
Cosmos 1606 3.4 01:30:51 10° N 01:34:21 36° ENE 01:36:14 22° SE
USA 305 3.7 01:30:46 10° WNW 01:34:43 41° SW 01:37:38 16° SSE
USA 308 3.6 01:30:47 10° WNW 01:34:51 46° SW 01:37:46 17° SSE
Cosmos 773 Rocket 4.0 01:32:21 10° S 01:37:30 63° ESE 01:42:38 10° NNE
Cosmos 2279 Rocket 4.1 01:40:24 10° N 01:46:35 78° W 01:52:46 10° S
Cosmos 2151 3.9 01:47:17 25° SE 01:48:39 30° E 01:52:23 10° NNE
Landsat 7 4.0 01:49:11 15° S 01:53:10 72° WSW 01:57:56 10° NNW
Cosmos 2058 3.8 01:51:13 10° SSW 01:55:15 49° W 01:59:20 10° N
COSMOS 2406 3.8 01:49:57 10° SW 01:55:32 59° WNW 02:01:11 10° NNE
Cosmos 1842 Rocket 3.6 01:51:50 10° N 01:56:20 85° W 01:59:20 21° S
GP-B 4.1 01:52:30 10° NNE 01:56:23 29° E 01:57:26 26° ESE
Cosmos 1825 4.2 01:53:26 10° SW 01:56:41 27° WNW 01:59:56 10° NNW
Meteor 2-3 Rocket 4.4 01:54:12 24° SE 01:56:41 35° E 02:01:46 10° NNE
Cosmos 2369 3.7 01:52:28 10° NNW 01:58:07 71° ENE 02:01:22 26° SE
USA 306 4.4 01:55:04 10° WNW 01:58:39 26° SW 02:00:51 17° S
ERS-1 Rocket 3.6 02:00:52 26° ESE 02:03:03 40° ENE 02:07:43 10° N
Spot 2 Rocket 3.6 02:01:35 27° SE 02:04:14 60° ENE 02:09:17 10° N
Cosmos 1076 Rocket 3.4 02:02:51 18° S 02:05:59 89° E 02:10:21 10° N
ATLAS 2AS CENTAUR R/B 3.4 02:00:05 10° SW 02:07:57 69° NW 02:15:44 10° NNE
Cosmos 1980 Rocket 2.3 02:03:49 10° NNW 02:09:24 63° ENE 02:12:06 31° SE
Resurs 01 Rocket 2.9 02:08:50 12° SSW 02:12:32 37° W 02:16:39 10° NNW
Nadezhda 4 Rocket 4.0 02:07:56 11° S 02:13:51 86° W 02:20:06 10° N
Cosmos 2322 Rocket 4.1 02:12:46 10° N 02:16:27 17° NE 02:19:11 13° E
Cosmos 1538 Rocket 3.9 02:13:44 18° S 02:17:37 72° ESE 02:22:48 10° NNE
Cosmos 158 Rocket 4.1 02:18:29 33° SSE 02:20:27 53° ESE 02:25:32 10° NNE
RESURS DK-1 2.8 02:19:26 10° SW 02:23:32 61° WNW 02:27:39 10° NNE
Cosmos 2098 Rocket 3.2 02:22:43 31° SW 02:23:40 43° W 02:26:40 10° N
GENESIS II 4.3 02:21:55 10° NW 02:25:47 67° WSW 02:26:31 52° S
USA 267 3.1 02:19:20 10° NE 02:25:53 71° SE 02:32:24 10° SW
USA 245 4.4 02:22:59 24° S 02:26:26 66° WSW 02:31:21 10° NNW
Meteor 2-19 Rocket 4.3 02:22:44 23° S 02:26:39 82° E 02:32:44 10° N
Cosmos 1271 Rocket 3.5 02:24:11 10° N 02:27:54 37° ENE 02:28:02 37° E
BREEZE-M DEB (TANK) 4.2 02:25:07 10° NW 02:28:57 70° NNE 02:36:58 20° ESE
ATLAS 3B R/B 3.0 02:22:02 10° NNW 02:29:06 63° NE 02:32:46 31° ESE
Cosmos 1633 4.0 02:29:09 16° SW 02:31:30 35° WNW 02:34:51 10° N
SPOT 1/Viking Rocket 4.3 02:28:26 22° SSW 02:31:34 49° W 02:36:37 10° NNW
ISS -1.4 02:33:45 10° NNW 02:36:18 19° NNE 02:37:38 16° NE
Cosmos 1428 Rocket 4.4 02:37:00 34° S 02:39:46 73° E 02:45:53 10° N
ARIANE 5 R/B 2.8 02:38:33 44° S 02:39:52 71° WSW 02:44:21 10° NNW
Cosmos 1933 3.1 02:36:39 10° N 02:40:43 79° E 02:41:03 72° SE
SL-16 R/B 3.2 02:36:49 10° N 02:41:57 33° ENE 02:43:41 28° E
SPOT 5 2.5 02:44:08 57° S 02:44:58 80° W 02:49:19 10° NNW
Cosmos 1553 Rocket 4.5 02:41:40 10° N 02:47:24 42° ENE 02:48:47 37° ESE
Cosmos 304 Rocket 4.0 02:42:59 10° N 02:47:42 54° ENE 02:48:21 50° E
USA 234 4.2 02:53:40 17° E 02:58:12 41° NNE 03:04:14 10° NW
Meteor 1-26 Rocket 4.3 02:56:50 10° N 03:02:51 84° W 03:04:29 50° S
Cosmos 923 Rocket 3.9 03:03:16 57° S 03:04:22 82° ESE 03:09:44 10° NNE
Cosmos 371 Rocket 3.6 02:59:41 10° NNW 03:04:23 54° WSW 03:05:07 49° SW
Terra 1.8 03:04:43 61° SSW 03:05:23 72° WSW 03:10:10 10° NNW
ERBS 4.1 03:03:56 10° WNW 03:05:39 26° WNW 03:05:39 26° WNW
Cosmos 1862 4.4 03:12:07 36° NE 03:12:07 36° NE 03:14:47 10° NNE
Cosmos 2082 Rocket 4.2 03:08:05 10° WSW 03:12:48 27° NW 03:17:34 10° N
S3M 4.4 03:08:40 10° N 03:14:50 48° ENE 03:15:54 44° ESE
Cosmos 2278 4.3 03:09:44 10° NW 03:15:06 46° WSW 03:16:22 39° SW
Cosmos 1766 Rocket 3.6 03:18:51 73° W 03:18:51 73° W 03:23:16 10° N
Meteor 2-14 Rocket 4.3 03:17:55 58° SSE 03:19:12 80° E 03:25:22 10° N
Cosmos 2056 Rocket 4.3 03:14:50 10° N 03:19:50 38° ENE 03:20:20 37° ENE
Cosmos 1812 3.6 03:16:34 10° N 03:19:23 43° NNE 03:19:23 43° NNE
Cosmos 1782 3.5 03:19:44 10° NNW 03:23:15 50° WNW 03:23:15 50° WNW
Cosmos 2333 Rocket 4.2 03:21:49 10° N 03:25:35 18° NE 03:27:40 15° ENE
Gbstr 26 Del rocket 4.2 03:24:20 10° NW 03:27:53 33° NNE 03:28:19 32° NE
Cosmos 2360 Rocket 3.0 03:27:00 10° N 03:32:13 37° ENE 03:33:01 36° ENE
Cosmos 1328 Rocket 3.8 03:30:06 10° NNW 03:34:03 66° NW 03:34:03 66° NW
Cosmos 2112 Rocket 4.0 03:38:50 72° WSW 03:39:16 77° WNW 03:44:35 10° NNE
Cosmos 1371 Rocket 4.1 03:35:33 10° NNW 03:40:54 65° ENE 03:40:55 65° ENE
Cosmos 1680 Rocket 3.8 03:40:32 54° WSW 03:41:22 63° WNW 03:46:37 10° NNE
Cosmos 1151 Rocket 4.0 03:41:00 10° NNW 03:44:42 40° WNW 03:44:42 40° WNW
Cosmos 1980 Rocket 4.1 03:49:16 10° WNW 03:52:48 17° W 03:53:53 16° WSW
BREEZE-M DEB (TANK) 3.8 03:49:35 10° WNW 03:54:07 61° SSW 03:55:45 52° S
Cosmos 2322 Rocket 2.1 03:55:30 10° NNW 04:00:58 75° W 04:00:58 75° W
Cosmos 1500 Rocket 4.4 04:05:32 47° N 04:05:32 47° N 04:08:42 10° N
USA 267 4.5 04:02:37 10° NE 04:08:36 40° NNW 04:14:35 10° W
ISS -0.7 04:10:07 10° NW 04:10:34 13° NW 04:10:34 13° NW
Cosmos 2315 Rocket 3.9 04:10:58 10° N 04:17:17 79° E 04:17:33 77° ESE
ATLAS 3B R/B 3.9 04:13:28 10° NW 04:19:24 28° WSW 04:20:00 28° WSW
Cosmos 292 Rocket 4.4 04:14:40 10° NNW 04:18:26 54° N 04:18:26 54° N
Cosmos 2237 4.3 04:15:08 10° NNW 04:20:24 67° W 04:20:24 67° W
Spot 4 4.5 04:22:24 51° NW 04:22:24 51° NW 04:26:15 10° NNW
Meteor 1-27 Rocket 3.7 04:17:12 10° N 04:22:32 80° NW 04:22:32 80° NW
Cosmos 1624 Rocket 4.5 04:17:53 10° NNW 04:22:13 53° WNW 04:22:13 53° WNW
COSMOS 2428 3.9 04:18:21 10° N 04:23:26 32° ENE 04:24:20 30° ENE
Cosmos 2228 Rocket 4.1 04:19:31 10° N 04:22:34 44° N 04:22:34 44° N
SL-16 R/B 3.2 04:20:55 10° NW 04:25:32 34° W 04:25:32 34° W
Cosmos 2219 Rocket 2.9 04:23:58 10° N 04:29:17 42° ENE 04:29:34 42° ENE
Cosmos 1420 Rocket 4.5 04:32:50 10° NNW 04:37:14 57° NW 04:37:14 57° NW
USA 234 3.2 04:41:00 69° SW 04:41:00 69° SW 04:47:30 10° NW
COSMOS 2455 2.8 04:44:29 76° NE 04:44:29 76° NE 04:50:04 10° NNE
Sich 1 4.3 04:45:43 40° N 04:45:43 40° N 04:48:36 10° N
Cosmos 489 Rocket 4.4 04:48:18 75° E 04:48:18 75° E 04:54:25 10° NNE
BREEZE-M DEB (TANK) 4.0 04:36:12 10° WSW 04:48:48 88° NNW 04:52:49 10° ENE
Nimbus 7 Rocket 4.3 04:46:07 10° NNE 04:52:08 84° WNW 04:52:08 84° WNW
Cosmos 1452 Rocket 3.8 04:47:38 10° NNW 04:52:03 63° N 04:52:03 63° N
Meteor 1-20 Rocket 4.3 04:53:51 69° NW 04:53:51 69° NW 04:59:00 10° N
ALOS 2 4.1 04:56:16 31° NW 04:56:16 31° NW 04:58:54 10° NNW
Cosmos 1745 Rocket 4.3 05:00:51 51° E 05:00:51 51° E 05:06:48 10° NNE
Meteor 1-18 Rocket 4.5 04:55:57 10° N 05:01:37 64° ENE 05:01:37 64° ENE
Geosat 4.4 05:05:50 61° NNE 05:05:50 61° NNE 05:10:12 10° NNW
ATLAS 5 CENTAUR R/B 3.6 05:04:48 10° NNW 05:09:59 37° NE 05:12:56 24° E
Cosmos 2333 Rocket 2.4 05:04:50 10° NNW 05:09:38 62° NW 05:09:38 62° NW
Cosmos 2360 Rocket 3.6 05:11:13 10° NW 05:14:46 27° W 05:14:46 27° W
Lacrosse 5 4.0 05:18:45 16° E 05:18:45 16° E 05:20:14 10° ENE
Resurs 1-4 Rocket 4.0 05:18:58 10° NE 05:22:21 18° E 05:22:21 18° E
Cosmos 1110 Rocket 4.3 05:19:34 10° NNW 05:24:10 66° N 05:24:10 66° N
Nadezhda 1 Rocket 4.0 05:18:35 10° N 05:25:01 75° E 05:25:20 73° ESE
Cosmos 2322 4.2 05:20:01 10° NNW 05:24:37 50° WNW 05:24:37 50° WNW
Cosmos 1386 Rocket 4.4 05:26:53 82° SE 05:27:03 83° E 05:33:29 10° N
NOSS 3-1 (C) 4.0 05:22:11 10° NW 05:29:57 74° WSW 05:31:18 63° S
Meteor 1-14 Rocket 4.2 05:33:56 73° NNW 05:33:56 73° NNW 05:39:04 10° N
Cosmos 1331 Rocket 4.3 05:29:45 10° NNW 05:34:07 62° NNW 05:34:07 62° NNW
Cosmos 2297 Rocket 2.7 05:37:04 49° E 05:37:04 49° E 05:41:56 10° NNE
USA 229 DEB 3.8 05:33:56 10° NW 05:41:23 87° ENE 05:43:12 57° SE
USA 229 3.8 05:34:02 10° NW 05:41:29 87° ENE 05:43:21 57° SE
Cosmos 2237 Rocket 2.8 05:38:10 10° NNW 05:43:40 50° ENE 05:44:36 45° E
Cosmos 2227 Rocket 2.8 05:47:43 46° E 05:47:43 46° E 05:52:41 10° NE
ASTEX 1 4.2 05:50:13 43° ENE 05:50:13 43° ENE 05:54:44 10° N
Meteor 2-4 Rocket 4.0 05:54:40 10° NNW 06:00:14 60° W 06:00:14 60° W
CZ-2D R/B 3.0 05:55:51 10° NNE 06:00:53 39° E 06:01:02 39° ESE
Cosmos 1269 Rocket 4.1 06:01:46 74° NNW 06:01:46 74° NNW 06:06:39 10° NNE
NOSS 3-1 (A) 4.0 05:54:03 10° NW 06:01:50 75° WSW 06:04:02 54° S
ADEOS II 4.0 05:59:13 10° NE 06:02:54 19° E 06:03:49 18° ESE
Cosmos 1340 Rocket 4.3 06:07:38 33° N 06:07:38 33° N 06:09:57 10° N
SL-16 R/B 3.9 06:02:27 10° N 06:07:18 28° NE 06:12:02 10° ESE
COSMOS 2428 3.8 06:02:32 10° NW 06:06:19 32° WNW 06:06:19 32° WNW
Cosmos 2219 Rocket 3.7 06:08:24 10° NW 06:11:15 22° WNW 06:11:15 22° WNW
Cosmos 2263 Rocket 4.5 06:12:47 11° ESE 06:14:25 13° E 06:16:46 10° ENE
Timation 1 Rocket 4.4 06:15:47 63° SE 06:16:07 64° ESE 06:22:03 10° NNE
Helios 1A 3.8 06:17:21 49° N 06:17:21 49° N 06:20:28 10° NNW
Okean 3 4.2 06:16:06 10° N 06:19:37 53° NNE 06:19:37 53° NNE
Okean 1-7 4.0 06:18:04 10° NNW 06:20:56 40° NNW 06:20:56 40° NNW
Cosmos 1302 Rocket 4.2 06:19:15 10° NNW 06:23:41 58° WNW 06:23:41 58° WNW
Cosmos 909 Rocket 4.1 06:32:17 59° SW 06:33:39 81° WNW 06:41:05 10° NNE
Cosmos 2219 3.3 06:34:37 61° W 06:35:12 65° WNW 06:40:56 10° NNE
UNK 4.0 06:36:39 61° ESE 06:37:02 64° ENE 06:41:41 10° N
Cosmos 1709 Rocket 4.4 06:37:29 45° W 06:38:16 47° WNW 06:44:22 10° N
Helios 1B rocket 3.1 06:35:04 10° NNE 06:38:41 48° ENE 06:38:41 48° ENE
Cosmos 1066 Rocket 4.2 06:35:24 10° NNW 06:41:14 70° W 06:41:46 65° SW
MOZ.5/SAFIR/RUBIN 5/SL-8 4.5 06:47:16 41° WNW 06:47:16 41° WNW 06:50:59 10° NNW
Timation 2 Rocket 3.8 06:46:12 61° SW 06:47:14 76° WNW 06:53:20 10° NNE
Cosmos 2084 Rocket 3.7 06:49:02 10° NW 06:52:38 63° NW 06:52:38 63° NW
IDEFIX/ARIANE 42P 4.0 06:49:01 10° NE 06:53:33 30° E 06:55:37 23° SE
ATLAS 5 CENTAUR R/B 2.8 06:49:10 10° NW 06:54:21 45° WSW 06:54:21 45° WSW
Cosmos 2082 3.6 06:54:29 62° SSW 06:55:31 87° ESE 07:01:17 10° NNE
Cosmos 2251 Rocket 3.4 06:56:04 67° S 06:56:47 85° ESE 07:02:06 10° NNE
Meteor 1-11 Rocket 4.3 06:56:39 39° W 06:57:10 40° WNW 07:02:22 10° N
Cosmos 1536 4.3 06:58:19 27° NW 06:58:19 27° NW 07:01:00 10° NNW
Lacrosse 5 2.2 06:57:56 49° W 06:58:50 57° NW 07:03:50 10° NE
Cosmos 2184 Rocket 3.9 06:59:24 51° SSW 07:01:07 85° W 07:07:26 10° N
SL-16 R/B 2.4 07:00:09 50° SSW 07:01:44 70° WSW 07:07:55 10° NNW
Resurs 1-4 Rocket 2.3 06:57:27 10° N 07:02:39 56° WNW 07:03:26 51° WSW
Cosmos 1241 Rocket 4.5 07:05:27 48° SSW 07:07:30 89° ESE 07:14:04 10° NNE
Cosmos 2154 Rocket 4.0 07:05:52 40° S 07:08:15 75° E 07:14:27 10° N
Cosmos 1733 Rocket 2.9 07:13:20 72° SW 07:13:42 79° W 07:18:11 10° N
SL-8 R/B 3.8 07:15:14 56° SSE 07:15:38 59° SE 07:20:22 10° ENE
Cosmos 1140 Rocket 4.1 07:14:54 33° SSE 07:16:48 48° ESE 07:21:50 10° NNE
Cosmos 2297 Rocket 3.7 07:18:52 20° W 07:20:47 24° NW 07:25:22 10° N
AQUA 4.0 07:16:21 10° N 07:21:00 55° WNW 07:21:46 49° WSW
NPP 4.1 07:17:38 10° N 07:22:48 48° WNW 07:24:07 39° WSW
Cosmos 2074 Rocket 4.2 07:23:14 40° SW 07:25:07 53° W 07:31:12 10° N
Cosmos 2237 Rocket 3.6 07:23:01 10° NW 07:26:22 22° W 07:26:22 22° W
ADEOS Rocket 2.9 07:29:11 41° SSW 07:30:44 52° W 07:36:07 10° NNW
ARIANE 5 R/B 4.0 07:26:43 10° NE 07:31:19 31° E 07:35:20 13° SSE
Okean 2 3.6 07:27:12 10° N 07:31:22 68° E 07:33:05 33° SSE
Cosmos 2227 Rocket 3.6 07:29:32 21° W 07:31:32 26° NW 07:36:15 10° N
CZ-2D R/B 3.4 07:36:15 10° N 07:40:44 27° WNW 07:42:21 23° W
Meteor 1-28 Rocket 3.0 07:41:29 58° SSW 07:42:01 69° W 07:45:45 10° NNW
Cosmos 192 4.5 07:37:31 10° NNW 07:42:18 52° WSW 07:43:45 39° SSW
ADEOS II 2.4 07:37:46 10° N 07:42:52 52° WNW 07:44:44 35° SW
Meteor 2-9 Rocket 4.3 07:43:10 37° SW 07:44:59 54° WNW 07:50:13 10° N
SL-8 Rocket 4.5 07:40:18 15° SSE 07:45:20 57° E 07:51:21 10° NNE
IRS-1D 3.5 07:41:48 10° N 07:46:43 64° WNW 07:48:42 35° SW
NOSS 3-3 (A) 3.8 07:44:35 32° SSW 07:47:19 78° ESE 07:53:40 10° NE
NOSS 3-3 (C) 3.8 07:44:42 32° SSW 07:47:26 77° ESE 07:53:46 10° NE
Cosmos 2227 4.3 07:45:48 28° S 07:48:48 71° ESE 07:54:25 10° NNE
Cosmos 1782 Rocket 4.4 07:46:19 18° SSE 07:49:11 46° E 07:53:22 10° NNE
IRS-1C 4.5 07:46:04 10° NNE 07:51:23 62° ESE 07:55:10 19° S
SL-16 R/B 2.5 07:46:13 10° NW 07:51:32 43° WSW 07:53:48 29° SSW
Iridium 4 Rocket 3.9 07:47:21 10° N 07:52:47 57° W 07:55:47 28° SSW
Cosmos 2263 Rocket 2.2 07:54:29 29° SSW 07:57:30 83° WNW 08:03:13 10° NNE
Cosmos 1975 3.6 07:57:17 32° WSW 07:58:02 35° WNW 08:01:48 10° N
ATLAS CENTAUR R/B 1.5 07:57:40 33° S 07:59:04 55° ESE 08:02:53 10° NE
Landsat 4 4.4 07:57:56 10° N 08:01:23 38° WNW 08:02:12 33° WSW
CZ-4C R/B 3.2 07:55:41 10° NNW 08:03:10 82° NE 08:11:44 10° SE
Cosmos 407 Rocket 3.7 08:01:06 29° SW 08:03:42 57° WNW 08:08:55 10° NNE
Cosmos 1461 3.6 08:05:09 28° WSW 08:07:13 49° NW 08:11:35 10° NNE
Cosmos 1707 2.7 08:04:31 10° NNW 08:08:17 56° W 08:10:01 29° SSW
Cosmos 2344 3.5 08:04:49 23° SW 08:09:52 75° NW 08:17:35 10° NNE
Cosmos 2341 Rocket 4.0 08:06:43 20° SSW 08:11:11 71° W 08:17:25 10° N
ALOS 4.4 08:07:30 10° NE 08:11:14 23° E 08:14:56 10° SSE
GEOS 3 Rocket 4.3 08:06:01 10° SE 08:11:17 61° NE 08:16:32 10° NNW
Spot 1 3.9 08:08:52 10° SSE 08:13:04 87° WSW 08:17:11 10° NNW
Cosmos 2218 Rocket 4.1 08:07:37 12° S 08:13:40 81° E 08:20:02 10° N
In-Cosmos 22 4.2 08:08:50 10° NNW 08:14:36 73° W 08:20:17 10° S
Cosmos 1238 Rocket 3.9 08:18:43 19° W 08:18:58 19° WNW 08:21:22 10° NNW
SL-08 R/B 3.6 08:15:25 10° SSE 08:20:20 75° ENE 08:25:17 10° N
Cosmos 1733 4.0 08:18:02 10° S 08:21:45 49° E 08:25:29 10° NNE
COSMOS 2441 4.4 08:17:25 10° N 08:22:11 64° WNW 08:25:38 19° SSW
Cosmos 1300 Rocket 4.2 08:25:28 10° S 08:29:41 56° E 08:33:57 10° NNE
Cosmos 1943 3.2 08:25:31 10° NNW 08:31:16 85° WSW 08:36:57 10° SSE
IRS-P3 4.3 08:26:40 10° N 08:31:55 58° WNW 08:36:17 15° SSW
BREEZE-M DEB (TANK) 3.6 08:30:27 17° W 08:32:05 33° NNW 08:34:15 10° NE
IDEFIX/ARIANE 42P 3.5 08:28:32 10° N 08:33:06 32° WNW 08:36:25 16° WSW
Cosmos 1975 Rocket 3.0 08:31:15 10° N 08:35:40 79° W 08:40:00 10° S
USA 290 4.4 08:33:05 10° N 08:36:01 30° ENE 08:38:55 10° SE
CZ-3 Stage 3 3.3 08:34:41 10° S 08:36:44 15° SE 08:40:18 10° ESE
SL-24 R/B - RUBIN 2 4.4 08:31:52 10° NNW 08:36:47 59° NE 08:41:12 10° SE
CZ-2C R/B 2.5 08:33:33 10° NNE 08:38:07 70° ESE 08:42:43 10° S
Cosmos 1340 2.6 08:36:50 10° NNW 08:40:32 59° W 08:44:12 10° S
USA 215 3.3 08:35:19 10° NE 08:41:54 83° SE 08:47:58 12° SW
Cosmos 1900 4.3 08:37:53 15° SSW 08:42:08 86° WNW 08:47:06 10° NNE
Lacrosse 5 4.1 08:39:25 10° WNW 08:42:47 17° NNW 08:46:09 10° NNE
Cosmos 1400 Rocket 2.7 08:40:32 11° SSW 08:44:14 75° W 08:48:08 10° N
Cosmos 1626 2.0 08:41:05 10° N 08:44:48 90° S 08:48:28 10° S
Meteor 1-12 Rocket 4.4 08:45:12 10° SSW 08:50:44 57° WNW 08:56:21 10° N
Cosmos 1674 3.2 08:47:14 10° NNW 08:50:51 40° W 08:54:26 10° SSW
Cosmos 1315 Rocket 4.4 08:48:03 10° SSE 08:51:50 37° E 08:55:36 10° NNE
BREEZE-M DEB (TANK) 4.3 08:47:51 10° W 08:55:48 40° NNW 08:58:42 10° NE
PSLV R/B 4.3 08:54:20 10° NNE 08:58:33 54° E 09:02:43 10° S
Cosmos 1850 Rocket 4.2 08:55:05 10° SSW 09:00:23 76° ESE 09:05:39 10° NNE
Meteor 2-5 Rocket 4.2 08:58:18 10° N 09:04:15 71° E 09:10:03 10° SSE
Cosmos 468 Rocket 4.1 09:00:03 10° NNW 09:05:23 88° ENE 09:10:37 10° SSE
CZ-4B R/B 4.0 09:01:14 10° N 09:05:43 38° WNW 09:10:06 10° SW
Cosmos 1821 Rocket 4.0 09:00:33 10° S 09:06:43 90° WSW 09:12:51 10° N
ASTRO E2 4.2 09:05:41 10° SW 09:08:45 21° S 09:11:49 10° SE
Cosmos 1025 Rocket 3.1 09:05:23 10° NNW 09:09:38 59° W 09:13:53 10° S
Cosmos 44 3.9 09:05:15 10° NW 09:09:57 36° WSW 09:14:23 10° S
ARIANE 5 R/B 3.5 09:05:49 10° N 09:10:20 32° WNW 09:14:53 10° SW
Cosmos 1844 Rocket 2.8 09:05:28 10° SSW 09:11:06 83° ESE 09:16:49 10° NNE
BREEZE-M DEB (TANK) 2.5 09:08:38 10° WNW 09:11:29 82° NNE 09:15:16 10° ESE
Iridium 51 4.1 09:10:30 10° SSW 09:13:54 56° W 09:17:19 10° N
FENGYUN 3A 3.7 09:12:11 10° N 09:17:36 71° WNW 09:22:58 10° SSW
Cosmos 1603 4.4 09:13:34 10° NW 09:18:32 33° WSW 09:23:29 10° SSW
Aureole 1 Rocket 4.4 09:14:23 10° S 09:19:25 59° ESE 09:26:03 10° NNE
Milstar 3 4.0 09:16:47 10° SW 09:22:18 27° SSE 09:28:18 10° ESE
CZ-3 R/B 3.9 09:19:47 10° SW 09:39:49 33° S 09:46:46 10° ESE
